Location: Wilhelmshaven
(53.5279°N, 8.1063°E)
Time: 17:24:51
(UTC+02:00)

ISS - Visible Passes

Search period start: 05 July 2022 00:00
Search period end: 15 July 2022 00:00
Orbit: 414 x 420 km, 51.6° (Epoch: 05 July)

Date Brightness Start Highest point End Pass type
(mag) Time Alt. Az. Time Alt. Az. Time Alt. Az.
05 Jul -1.4 01:48:29 11° SE 01:48:29 11° SE 01:49:06 10° ESE visible
05 Jul -3.1 03:21:23 14° SW 03:23:51 37° SSE 03:27:01 10° E visible
06 Jul -2.8 02:34:36 23° S 02:35:45 29° SSE 02:38:44 10° E visible
06 Jul -3.7 04:08:52 10° WSW 04:12:12 61° S 04:15:32 10° E visible
07 Jul -2.4 01:47:44 22° SSE 01:47:44 22° SSE 01:50:20 10° E visible
07 Jul -3.6 03:20:42 10° WSW 03:24:00 54° SSE 03:27:18 10° E visible
08 Jul -1.6 01:00:48 14° ESE 01:00:48 14° ESE 01:01:47 10° ESE visible
08 Jul -3.5 02:33:40 18° SW 02:35:49 46° SSE 02:39:04 10° E visible
08 Jul -3.7 04:09:03 10° W 04:12:23 63° S 04:15:44 10° ESE visible
09 Jul -3.2 01:46:35 28° SSW 01:47:38 36° SSE 01:50:47 10° E visible
09 Jul -3.8 03:20:49 10° W 03:24:10 64° S 03:27:30 10° E visible
10 Jul -2.9 00:59:17 28° SSE 00:59:29 28° SSE 01:02:26 10° E visible
10 Jul -3.8 02:32:36 10° WSW 02:35:55 60° S 02:39:15 10° E visible
10 Jul -3.6 04:09:13 10° W 04:12:30 52° SSW 04:15:48 10° ESE visible
11 Jul -2.5 00:11:27 21° SE 00:11:27 21° SE 00:13:59 10° E visible
11 Jul -3.7 01:44:24 10° WSW 01:47:40 53° SSE 01:50:59 10° E visible
11 Jul -3.8 03:20:57 10° W 03:24:16 59° S 03:27:36 10° ESE visible
11 Jul -2.1 23:21:11 10° S 23:23:15 16° SE 23:25:20 10° ESE visible
12 Jul -3.5 00:56:14 10° SW 00:59:26 44° SSE 01:02:41 10° E visible
12 Jul -3.8 02:32:41 10° W 02:36:01 63° S 02:39:21 10° ESE visible
12 Jul -3.1 04:09:24 10° W 04:12:31 35° SSW 04:15:37 10° SE visible
13 Jul -3.2 00:08:08 10° SW 00:11:14 35° SSE 00:14:20 10° E visible
13 Jul -3.9 01:44:24 10° W 01:47:44 63° S 01:51:05 10° E visible
13 Jul -3.5 03:21:04 10° W 03:24:18 44° SSW 03:27:30 10° SE visible
13 Jul -2.8 23:20:08 10° SSW 23:23:02 27° SSE 23:25:56 10° E visible
14 Jul -3.8 00:56:07 10° WSW 00:59:27 60° S 01:02:46 10° E visible
14 Jul -3.7 02:32:45 10° W 02:36:02 53° SSW 02:39:19 10° ESE visible
14 Jul -2.4 04:09:45 10° W 04:12:20 21° SSW 04:14:57 10° SSE visible
